Location: Columbia
(38.9520°N, 92.3340°W)
Time: 04:19:16
(UTC-05:00)

Iridium 15 - Visible Passes

Search period start: 24 October 2017 00:00
Search period end: 03 November 2017 00:00
Orbit: 762 x 764 km, 86.4° (Epoch: 23 October)

Date Brightness Start Highest point End Pass type
(mag) Time Alt. Az. Time Alt. Az. Time Alt. Az.
27 Oct 9.3 06:44:38 10° ENE 06:45:52 11° ENE 06:47:06 10° E visible
28 Oct 8.3 20:46:44 13° N 20:46:44 13° N 20:47:12 10° N visible
29 Oct 8.6 07:06:50 10° NNE 07:11:01 25° E 07:15:10 10° SE visible
29 Oct 7.3 19:59:20 10° SSE 20:07:54 18° NNE 20:09:15 10° NNE visible
29 Oct 8.9 21:41:44 10° WSW 21:47:56 11° NW 21:48:15 10° NW visible
30 Oct 9.1 06:30:56 10° NE 06:32:49 12° ENE 06:34:42 10° E visible
30 Oct 6.9 19:22:34 10° SE 19:26:40 25° E 19:30:47 10° NNE visible
30 Oct 7.5 21:02:15 10° SW 21:06:52 34° W 21:11:32 10° NNW visible
31 Oct 7.7 18:47:27 10° E 18:49:14 12° ENE 18:51:02 10° ENE visible
31 Oct 6.1 20:23:49 10° S 20:28:56 71° W 20:34:04 10° N visible
01 Nov 8.4 06:53:38 10° NNE 06:57:57 27° E 07:02:14 10° SE visible
01 Nov 6.0 19:46:10 10° SSE 19:51:09 55° E 19:56:11 10° NNE visible
01 Nov 8.7 21:28:56 10° WSW 21:31:56 15° WNW 21:34:55 10° NW visible
02 Nov 9.0 06:17:25 10° NE 06:19:46 13° ENE 06:22:06 10° ESE visible
02 Nov 6.8 19:09:18 10° SE 19:13:32 27° E 19:17:47 10° NNE visible
02 Nov 7.7 20:49:16 10° SW 20:53:48 31° W 20:58:20 10° NNW visible
